Weather History for Rome, OR

Change the Weather History Date:

Wednesday, March 27, 2013

  Actual Average Record
Temperature  
Mean Temperature 47 °F 42 °F  
Max Temperature 63 °F 56 °F 76 °F (1986)
Min Temperature 31 °F 27 °F 14 °F (1944)
Degree Days  
Heating Degree Days 18 23  
Month to date heating degree days 666 690  
Since 1 July heating degree days 5315 5424  
Cooling Degree Days 0 0  
Month to date cooling degree days 0 0  
Year to date cooling degree days 0 0  
Moisture  
Dew Point 28 °F    
Average Humidity 53    
Maximum Humidity 82    
Minimum Humidity 23    
Precipitation  
Precipitation 0.00 in 0.03 in 0.42 in (1983)
Month to date precipitation 0.15 0.83  
Year to date precipitation 0.93 2.24  
Sea Level Pressure  
Sea Level Pressure 29.92 in    
Wind  
Wind Speed 4 mph (South)    
Max Wind Speed 14 mph    
Max Gust Speed 17 mph    
T = Trace of Precipitation, MM = Missing Value Source: NWS Daily Summary

Daily Weather History Graph

Daily Weather History Graph

Search for Another Location

Airport:

Trip Planner

Search our weather history database for the weather conditions in past years. The results will help you decide how hot, cold, wet, or windy it might be!

Date:

Astronomy

Mar. 27, 2013 Rise Set
Actual Time 6:41 AM PDT 7:12 PM PDT
Civil Twilight 6:13 AM PDT 7:40 PM PDT
Nautical Twilight 5:40 AM PDT 8:13 PM PDT
Astronomical Twilight 5:05 AM PDT 8:48 PM PDT
Moon 8:03 PM PDT (3/27) 6:34 AM PDT (3/27)
Length of Visible Light 13h 26m
Length of Day
12h 30m
Full, 100% of the Moon is Illuminated
Mar 27
Full
Apr 2
Last Quarter
Apr 10
New
Apr 18
First Quarter
Apr 25
Full

Hourly Weather History & Observations

Time (PDT) Temp. Windchill Dew Point Humidity Pressure Visibility Wind Dir Wind Speed Gust Speed Precip Events Conditions
12:52 AM 36.0 °F 33.3 °F 27.0 °F 70% 29.94 in - East 3.5 mph - N/A   Unknown
1:52 AM 30.9 °F 25.2 °F 24.1 °F 76% 29.94 in - SE 5.8 mph - N/A   Unknown
2:52 AM 34.0 °F 28.0 °F 28.0 °F 79% 29.92 in - SSE 6.9 mph - N/A   Unknown
3:52 AM 34.0 °F 29.8 °F 28.9 °F 82% 29.93 in - SW 4.6 mph - N/A   Unknown
4:52 AM 37.0 °F 34.5 °F 30.9 °F 79% 29.93 in - South 3.5 mph - N/A   Unknown
5:52 AM 37.0 °F - 30.9 °F 79% 29.94 in - Calm Calm - N/A   Unknown
6:52 AM 33.1 °F 28.7 °F 28.9 °F 85% 29.95 in - SE 4.6 mph - N/A   Unknown
7:52 AM 44.1 °F - 33.1 °F 65% 29.94 in - Calm Calm - N/A   Unknown
8:52 AM 46.0 °F - 33.1 °F 61% 29.95 in - Calm Calm - N/A   Unknown
9:52 AM 52.0 °F - 34.0 °F 50% 29.94 in - Calm Calm - N/A   Unknown
10:52 AM 51.1 °F - 35.1 °F 54% 29.96 in - WSW 4.6 mph - N/A   Unknown
11:52 AM 52.0 °F - 35.1 °F 53% 29.96 in - North 3.5 mph - N/A   Unknown
12:52 PM 54.0 °F - 30.9 °F 41% 29.94 in - South 3.5 mph - N/A   Unknown
1:52 PM 59.0 °F - 27.0 °F 29% 29.92 in - West 5.8 mph - N/A   Unknown
2:52 PM 59.0 °F - 26.1 °F 28% 29.90 in - Calm Calm - N/A   Unknown
3:52 PM 61.0 °F - 25.0 °F 25% 29.88 in - Variable 4.6 mph - N/A   Unknown
4:52 PM 60.1 °F - 24.1 °F 25% 29.88 in - Calm Calm - N/A   Unknown
5:52 PM 60.1 °F - 23.0 °F 24% 29.88 in - Variable 5.8 mph - N/A   Unknown
6:52 PM 57.0 °F - 23.0 °F 27% 29.90 in - SSW 4.6 mph - N/A   Unknown
7:52 PM 50.0 °F - 21.9 °F 33% 29.90 in - Calm Calm - N/A   Unknown
8:52 PM 46.0 °F 41.4 °F 23.0 °F 40% 29.91 in - SE 9.2 mph - N/A   Unknown
9:52 PM 46.0 °F 41.0 °F 24.1 °F 42% 29.91 in - SE 10.4 mph - N/A   Unknown
10:52 PM 46.0 °F 41.4 °F 25.0 °F 44% 29.91 in - SSE 9.2 mph - N/A   Unknown
11:52 PM 39.0 °F 33.4 °F 23.0 °F 53% 29.95 in - SSW 8.1 mph - N/A   Unknown